Location: Rounton
(54.4000°N, 1.3500°W)
Time: 13:31:55
(UTC+00:00)

Transit 4A - Pass Details

Date: 07 December 2021
Orbit: 864 x 981 km, 66.8° (Epoch: 20 January)

Event Time Altitude Azimuth Distance (km) Brightness Sun altitude
Rises 05:22:18 0° 308° (NW) 3,629 - -23.2°
Reaches altitude 10° 05:27:09 10° 275° (W) 2,704 - -22.5°
Maximum altitude 05:28:41 11° 261° (W) 2,639 - -22.3°
Drops below altitude 10° 05:30:14 10° 247° (WSW) 2,713 - -22.0°
Sets 05:35:10 0° 213° (SSW) 3,668 - -21.3°
Exits shadow 05:35:18 - 213° (SSW) 3,706 10.8 -21.3°
